| time (UTC) | temp C | wind direction | speed KPH | gust KPH | rain 1hr cm | rain 24hr cm | rain mn cm | humidity % | barometer mb |
| 20260504000330 | 17 | 180 | 6.4 | 14.5 | 0.00 | 0.00 | 0.00 | 20 | |
| 20260503235329 | 17 | 180 | 3.2 | 14.5 | 0.00 | 0.00 | 0.00 | 19 | |
| 20260503234328 | 18 | 180 | 9.7 | 16.1 | 0.00 | 0.00 | 0.00 | 18 | |
| 20260503233327 | 17 | 180 | 4.8 | 16.1 | 0.00 | 0.00 | 0.00 | 18 | |
| 20260503232326 | 17 | 180 | 12.9 | 20.9 | 0.00 | 0.00 | 0.00 | 17 | |
| 20260503231325 | 17 | 180 | 6.4 | 9.7 | 0.00 | 0.00 | 0.00 | 18 | |
| 20260503230324 | 17 | 180 | 11.3 | 16.1 | 0.00 | 0.00 | 0.00 | 20 | |
| 20260503225323 | 17 | 180 | 9.7 | 22.5 | 0.00 | 0.00 | 0.00 | 17 | |
| 20260503224322 | 17 | 180 | 17.7 | 27.4 | 0.00 | 0.00 | 0.00 | 16 | |
| 20260503223320 | 17 | 180 | 12.9 | 25.7 | 0.00 | 0.00 | 0.00 | 17 | |
| 20260503220317 | 17 | 180 | 9.7 | 29.0 | 0.00 | 0.00 | 0.00 | 21 | |
| 20260503215316 | 17 | 180 | 8.0 | 20.9 | 0.00 | 0.00 | 0.00 | 20 | |
| 20260503214315 | 16 | 180 | 14.5 | 25.7 | 0.00 | 0.00 | 0.00 | 16 | |
| 20260503213314 | 17 | 180 | 17.7 | 17.7 | 0.00 | 0.00 | 0.00 | 17 | |
| 20260503212313 | 17 | 180 | 12.9 | 24.1 | 0.00 | 0.00 | 0.00 | 21 | |
| 20260503211312 | 16 | 180 | 11.3 | 20.9 | 0.00 | 0.00 | 0.00 | 18 | |
| 20260503203308 | 16 | 180 | 11.3 | 16.1 | 0.00 | 0.00 | 0.00 | 19 | |
| 20260503201305 | 16 | 180 | 19.3 | 25.7 | 0.00 | 0.00 | 0.00 | 18 | |
| 20260503200305 | 16 | 180 | 12.9 | 24.1 | 0.00 | 0.00 | 0.00 | 18 | |
| 20260503195305 | 15 | 180 | 17.7 | 27.4 | 0.00 | 0.00 | 0.00 | 18 | |
| 20260503193302 | 15 | 180 | 11.3 | 35.4 | 0.00 | 0.00 | 0.00 | 20 | |
| 20260503192301 | 15 | 180 | 16.1 | 25.7 | 0.00 | 0.00 | 0.00 | 18 | |
| 20260503190259 | 15 | 180 | 8.0 | 19.3 | 0.00 | 0.00 | 0.00 | 21 | |
| 20260503185258 | 15 | 180 | 4.8 | 20.9 | 0.00 | 0.00 | 0.00 | 20 | |
| 20260503183256 | 15 | 180 | 8.0 | 16.1 | 0.00 | 0.00 | 0.00 | 17 | |
| 20260503182255 | 15 | 180 | 11.3 | 25.7 | 0.00 | 0.00 | 0.00 | 16 | |
| 20260503181254 | 15 | 180 | 6.4 | 22.5 | 0.00 | 0.00 | 0.00 | 15 | |
| 20260503180253 | 15 | 180 | 17.7 | 27.4 | 0.00 | 0.00 | 0.00 | 15 | |
| 20260503175252 | 15 | 180 | 17.7 | 20.9 | 0.00 | 0.00 | 0.00 | 14 | |
| 20260503174251 | 15 | 180 | 12.9 | 25.7 | 0.00 | 0.00 | 0.00 | 13 | |
| 20260503173250 | 14 | 180 | 16.1 | 24.1 | 0.00 | 0.00 | 0.00 | 15 | |
| 20260503172249 | 13 | 180 | 6.4 | 24.1 | 0.00 | 0.00 | 0.00 | 11 | |
| 20260503170245 | 13 | 180 | 17.7 | 30.6 | 0.00 | 0.00 | 0.00 | 10 | |
| 20260503150232 | 12 | 180 | 12.9 | 17.7 | 0.00 | 0.00 | 0.00 | 41 | |
| 20260503140226 | 11 | 180 | 12.9 | 16.1 | 0.00 | 0.00 | 0.00 | 49 | |
| 20260503130216 | 9 | 180 | 4.8 | 8.0 | 0.00 | 0.00 | 0.00 | 62 | |
| 20260503120208 | 6 | 180 | 4.8 | 8.0 | 0.00 | 0.00 | 0.00 | 74 | |
| 20260503110201 | 4 | 180 | 0.0 | 0.0 | 0.00 | 0.00 | 0.00 | 81 | |
| 20260503090150 | 5 | 180 | 0.0 | 0.0 | 0.00 | 0.00 | 0.00 | 75 | |
| 20260503081144 | 6 | 180 | 0.0 | 0.0 | 0.00 | 0.00 | 0.00 | 73 | |
| 20260503080144 | 7 | 180 | 0.0 | 0.0 | 0.00 | 0.00 | 0.00 | 73 | |
| 20260503072140 | 7 | 180 | 0.0 | 0.0 | 0.00 | 0.00 | 0.00 | 69 | |
| 20260503071138 | 7 | 180 | 0.0 | 0.0 | 0.00 | 0.00 | 0.00 | 69 | |
| 20260503070137 | 8 | 180 | 0.0 | 0.0 | 0.00 | 0.00 | 0.00 | 68 | |
| 20260503060133 | 9 | 180 | 0.0 | 0.0 | 0.00 | 0.00 | 0.00 | 68 | |
| 20260503053129 | 10 | 180 | 0.0 | 0.0 | 0.00 | 0.00 | 0.00 | 67 | |
| 20260503052127 | 10 | 180 | 0.0 | 0.0 | 0.00 | 0.00 | 0.00 | 66 | |
| 20260503051127 | 10 | 180 | 0.0 | 0.0 | 0.00 | 0.00 | 0.00 | 66 | |
| 20260503043119 | 10 | 180 | 0.0 | 12.9 | 0.00 | 0.00 | 0.00 | 63 | |
| 20260503042119 | 10 | 180 | 0.0 | 6.4 | 0.00 | 0.00 | 0.00 | 68 | |
| 20260503041117 | 10 | 180 | 0.0 | 0.0 | 0.00 | 0.00 | 0.00 | 66 | |
| 20260503040117 | 10 | 180 | 0.0 | 0.0 | 0.00 | 0.00 | 0.00 | 65 | |
| 20260503035115 | 10 | 180 | 0.0 | 0.0 | 0.00 | 0.00 | 0.00 | 64 | |
| 20260503034114 | 10 | 180 | 0.0 | 0.0 | 0.00 | 0.00 | 0.00 | 63 | |
| 20260503032113 | 11 | 180 | 0.0 | 0.0 | 0.00 | 0.00 | 0.00 | 68 | |
| 20260503031112 | 11 | 180 | 0.0 | 0.0 | 0.00 | 0.00 | 0.00 | 62 | |
| 20260503025110 | 12 | 180 | 0.0 | 0.0 | 0.00 | 0.00 | 0.00 | 58 | |
| 20260503024109 | 12 | 180 | 0.0 | 3.2 | 0.00 | 0.00 | 0.00 | 50 | |
| 20260503023108 | 13 | 180 | 4.8 | 12.9 | 0.00 | 0.00 | 0.00 | 46 | |
| 20260503022107 | 13 | 180 | 9.7 | 19.3 | 0.00 | 0.00 | 0.00 | 44 | |
| 20260503021104 | 13 | 180 | 8.0 | 14.5 | 0.00 | 0.00 | 0.00 | 42 | |
| 20260503015101 | 14 | 180 | 0.0 | 19.3 | 0.00 | 0.00 | 0.00 | 37 | |
| 20260503014101 | 14 | 180 | 16.1 | 14.5 | 0.00 | 0.00 | 0.00 | 34 | |
| 20260503013059 | 14 | 180 | 9.7 | 16.1 | 0.00 | 0.00 | 0.00 | 33 | |
| 20260503012058 | 15 | 180 | 3.2 | 16.1 | 0.00 | 0.00 | 0.00 | 34 | |
| 20260503011058 | 15 | 180 | 12.9 | 14.5 | 0.00 | 0.00 | 0.00 | 32 | |
| 20260503010056 | 15 | 180 | 6.4 | 12.9 | 0.00 | 0.00 | 0.00 | 31 | |
| 20260503005056 | 15 | 180 | 8.0 | 17.7 | 0.00 | 0.00 | 0.00 | 31 | |
| 20260503001051 | 15 | 180 | 14.5 | 12.9 | 0.00 | 0.00 | 0.00 | 27 |